SCP
0 0 0 0 0 0 0 0 0 0 0 0 0 0 0 0 0 0 0 0 0 0 0 0 0 0 0 0 0 0 0 0 0 0 0 0 0 0
0 0 0 0 0 0 0 0 0 0 0 0 0 0 0 0 0 0 0 0 0 0 0 0 0 0 0 0 0 0 0 0 0 0 0 0 0 0
0 0 0 0 0 0 0 0 0 0 0 0 0 0 0 0 0 0 0 0 0 0 0 0 0 0 0 0 0 0 0 0 0 0 0 0 0 0
0 0 0 0 0 0 0 0 0 0 0 0 0 0 0 0 0 0 0 0 0 0 0 0 0 0 0 0 0 0 0 0 0 0 0 0 0 0
0 0 0 0 0 0 0 0 0 0 0 0 0 0 0 0 0 0 0 0 0 0 0 0 0 0 0 0 0 0 0 0 0 0 0 0 0 0
0 0 0 0 0 0 0 0 0 0 0 0 0 0 0 0 0 0 0 0 0 0 0 0 0 0 0 0 0 0 0 0 0 0 0 0 0 0
0 0 0 0 0 0 0 0 0 0 0 0 0 0 0 0 0 0 0 0 0 0 0 0 0 0 0 0 0 0 0 0 0 0 0 0 0 0
-0 0 0 -0 -0 -0 -0 -0 0 0 0 0 0 0 0 0 0 0 0 0 0 0 0 0 0 0 0 0 0 0 0 0 0 0 0 0 0 0
-0 -0 -0 -0 -0 -0 -0 -0 -0 -0 0 0 0 0 0 0 0 0 0 0 0 0 0 0 0 0 0 0 0 0 0 0 0 0 0 0 0 0
-0 -0 -0 -0 -0 -0 -0 -0 0 0 0 0 0 0 0 0 0 0 0 0 0 0 0 0 0 0 0 0 0 0 0 0 0 0 0 0 0 0
-0 -0 -0 -0 -0 -0 0 0 0 0 0 0 0 0 0 0 0 0 0 0 0 0 0 0 0 0 0 0 0 0 0 0 0 0 0 0 0 0
-0 -0 -0 -0 -0 -0 0 0 0 0 0 0 0 0 0 0 0 0 0 0 0 0 0 0 0 0 0 0 0 0 0 0 0 0 0 0 0 0
-0 -0 -0 -0 -0 -0 0 0 0 0 0 0 0 0 0 0 0 0 0 0 0 0 0 0 0 0 0 0 0 0 0 0 0 0 0 0 0 0
-0 0 0 -0 -0 -0 0 -0 -0 0 0 0 0 0 0 0 0 0 0 0 0 0 0 0 0 0 0 0 0 0 0 0 0 0 0 0 0 0
-0 -0 -0 -0 -0 -0 -0 0 0 0 0 0 0 0 0 0 0 0 0 0 0 0 0 0 0 0 0 0 0 0 0 0 0 0 0 0 0 0
-0 -0 -0 -0 -0 0 0 0 0 0 0 0 0 0 0 0 0 0 0 0 0 0 0 0 0 0 0 0 0 0 0 0 0 0 0 0 0 0
-0 0 0 0 0 0 0 0 0 0 0 0 0 0 0 0 0 0 0 0 0 0 0 0 0 0 0 0 0 0 0 0 0 0 0 0 0 0
0 0 0 0 0 0 0 0 0 0 0 0 0 0 0 0 0 0 0 0 0 0 0 0 0 0 0 0 0 0 0 -0 0 0 0 0 0 0
0 0 0 0 0 0 0 0 0 0 0 0 0 0 0 0 0 0 0 0 0 0 0 0 0 0 0 0 0 0 -0 -0 -0 0 0 0 0 0
0 0 0 0 0 0 0 0 0 0 0 0 0 0 0 0 0 0 0 0 0 0 0 0 0 0 0 0 0 0 -0 0 0 0 0 0 0 -0
0 0 0 0 0 0 0 0 0 0 0 0 0 0 0 0 0 0 0 0 0 0 0 0 0 0 0 0 0 0 0 -0 -0 0 0 0 0 0
0 0 0 0 0 0 0 0 0 0 0 0 0 0 0 0 0 0 0 0 0 0 0 0 0 0 0 0 0 0 0 0 -0 -0 -0 -0 0 0
0 0 0 0 0 0 0 0 0 0 0 0 0 0 0 0 0 0 0 0 0 0 0 0 0 0 0 0 0 0 0 0 0 0 0 -0 -0 -0
Wind_Speed_500mb
10 9 14 15 12 15 20 19 26 18 15 13 16 24 14 18 22 22 15 23 26 27 28 30 30 29 27 28 31 31 33 30 31 25 19 23 21 17
9 9 10 10 12 4 10 24 28 24 21 24 27 21 20 18 19 28 28 32 36 36 32 33 31 32 34 36 33 32 34 34 27 22 21 21 22 17
12 10 9 12 12 12 15 13 13 20 18 18 20 19 21 29 28 22 29 28 36 33 26 27 36 37 31 27 31 33 32 27 19 20 24 25 24 21
14 10 11 14 19 17 18 21 21 18 18 14 18 20 17 20 26 24 21 18 21 30 32 28 26 27 30 34 32 26 19 20 20 26 28 29 27 22
13 13 16 15 13 19 23 27 24 19 16 13 11 18 18 21 20 19 21 22 25 29 30 32 35 34 25 22 16 17 18 21 26 29 28 26 26 23
12 18 20 18 20 17 9 14 27 15 11 9 4 8 13 12 13 14 14 16 16 17 20 19 18 16 15 6 14 17 25 24 25 24 22 22 21 19
18 18 14 18 8 9 9 18 21 14 8 5 4 3 3 2 7 11 11 12 13 14 16 16 16 18 19 19 21 23 19 20 20 21 22 27 29 30
10 11 21 21 23 25 24 20 13 9 7 1 5 3 5 6 8 10 12 13 13 15 15 14 15 17 20 21 18 15 17 23 21 19 22 30 29 31
26 27 30 27 20 14 12 11 11 8 6 5 4 4 6 8 11 13 13 14 15 16 15 16 18 17 16 14 14 17 26 29 28 27 29 22 25 25
35 31 29 26 22 12 10 9 11 10 10 9 8 8 8 10 11 12 12 12 11 14 16 16 21 21 20 15 20 21 26 29 30 26 26 27 34 29
34 28 22 22 22 19 10 11 14 17 17 14 15 14 13 16 19 18 12 12 13 15 17 16 19 19 14 11 11 19 21 26 29 30 30 28 28 31
31 30 24 19 17 19 11 14 13 18 14 14 16 18 21 23 23 20 16 12 11 6 14 21 19 24 13 10 12 25 29 27 30 31 30 25 25 29
29 24 21 16 15 14 14 14 14 17 16 17 19 22 23 25 25 23 19 17 14 11 15 20 20 22 22 27 25 22 24 29 24 23 17 17 20 21
20 19 19 16 16 17 16 18 21 18 18 20 21 22 24 25 28 26 22 20 19 20 24 26 24 26 28 31 33 30 22 21 20 13 14 15 21 27
18 16 17 17 19 18 18 19 19 18 19 19 21 24 25 26 25 22 21 20 23 27 28 30 28 26 25 27 30 27 26 20 13 23 24 24 25 26
14 18 17 19 14 15 19 18 17 20 21 24 26 26 25 25 26 28 28 29 25 21 21 23 25 26 25 24 23 19 17 21 26 24 26 21 15 19
16 19 20 18 17 20 20 21 23 24 23 24 24 25 24 25 30 31 32 36 41 41 37 34 26 21 21 19 16 16 22 27 24 24 26 23 12 16
18 19 20 19 20 22 22 24 23 23 24 24 24 24 26 31 34 35 37 41 43 40 38 38 38 33 28 20 17 20 22 25 23 20 22 23 19 17
15 20 17 18 20 22 23 23 22 21 22 23 24 27 29 31 35 40 42 43 40 37 37 37 36 37 35 34 21 18 28 27 28 25 18 16 21 22
17 16 16 18 20 22 23 21 19 20 20 22 24 26 28 31 36 40 40 40 38 38 38 35 34 36 30 27 26 22 21 28 25 24 24 22 21 19
17 16 16 17 20 21 20 17 16 18 19 21 23 25 27 30 34 36 38 37 35 38 40 39 34 26 24 20 23 23 24 17 20 20 24 23 24 20
15 15 16 18 19 20 16 13 14 15 17 19 21 25 27 29 33 35 38 38 37 36 36 35 30 27 26 26 26 29 29 20 10 11 12 18 23 25
13 14 15 17 19 18 14 11 12 14 15 17 20 23 26 28 31 34 35 35 37 37 37 34 32 30 30 30 27 27 29 26 24 17 12 15 15 14
Wind_Direction_500mb
175 202 218 224 252 265 271 261 259 254 211 207 193 181 176 185 202 222 245 262 261 272 277 273 273 272 274 278 283 291 292 292 292 288 288 309 319 319
207 224 236 236 233 335 303 259 251 248 235 211 218 204 200 214 243 254 237 262 265 273 267 265 278 275 277 276 281 290 293 291 287 280 286 296 302 309
219 232 245 247 255 280 289 295 270 241 225 226 229 233 234 238 243 240 265 270 278 269 272 288 285 273 270 277 288 288 287 283 278 280 288 295 298 299
216 240 266 262 255 267 277 276 258 200 207 237 241 218 223 251 250 238 247 264 281 276 274 260 263 272 283 286 282 278 273 271 275 282 290 291 290 281
207 244 259 264 267 270 288 268 223 202 203 244 239 230 244 255 258 267 271 273 263 263 270 276 279 281 270 268 260 274 272 280 283 286 290 292 287 281
229 234 255 267 265 272 259 242 207 182 188 157 300 274 266 272 280 280 282 281 277 277 282 281 278 274 274 249 249 261 284 288 291 297 304 294 296 302
231 241 256 263 204 130 141 178 162 186 200 236 291 253 224 267 309 305 300 296 288 280 277 275 274 276 278 274 269 275 282 276 286 281 285 277 294 299
210 164 126 108 112 126 141 148 162 169 180 254 135 328 318 327 319 309 304 296 287 295 284 289 291 284 279 277 276 276 275 281 292 298 293 276 282 293
115 112 107 109 122 118 124 135 141 128 110 62 12 343 336 330 322 317 308 299 290 288 291 292 295 296 288 271 269 274 273 277 286 291 304 298 291 292
110 114 114 109 95 85 92 118 115 100 78 57 39 47 27 11 352 336 325 309 298 300 305 300 299 302 299 284 248 261 268 280 287 289 292 296 284 275
115 113 113 115 104 87 80 90 94 84 77 60 55 53 38 23 15 4 338 318 303 305 324 339 330 330 311 249 271 276 300 294 289 293 292 285 283 284
122 115 106 95 93 95 78 75 80 83 67 54 40 31 24 17 16 18 20 5 360 341 341 338 335 339 337 293 272 285 297 288 287 291 290 289 289 293
118 112 106 99 88 84 85 83 80 80 62 42 33 28 26 24 24 19 11 6 1 351 328 332 327 322 322 313 317 320 314 309 304 301 289 281 277 290
114 112 108 98 100 95 91 84 78 65 48 35 31 31 28 26 21 19 9 352 343 338 328 319 314 314 316 318 325 327 329 314 321 320 308 287 286 295
111 107 96 95 82 83 83 78 64 51 42 35 35 34 27 17 1 354 355 340 324 315 309 312 313 311 311 313 315 326 329 337 324 323 316 311 308 309
117 113 107 97 95 88 84 81 71 60 51 45 38 30 20 8 3 1 359 357 348 327 312 316 315 316 316 315 310 314 323 325 323 317 316 320 305 306
116 117 109 100 97 94 91 84 72 60 51 44 35 28 21 18 16 13 10 8 4 358 356 356 355 342 331 327 324 315 320 322 324 327 326 324 315 310
114 111 107 104 99 93 86 77 69 58 51 44 37 33 28 25 22 18 12 9 5 5 6 5 359 3 9 10 4 350 343 341 338 333 334 336 337 340
117 112 105 103 99 96 88 77 67 59 49 40 35 31 29 26 22 17 11 6 9 12 12 4 7 8 8 5 9 359 343 339 334 337 331 328 333 344
117 109 111 110 105 99 89 76 63 52 44 39 34 29 27 24 19 16 15 16 16 10 6 8 10 7 360 354 355 2 356 351 354 351 345 338 333 336
119 124 120 114 109 101 89 75 60 47 40 38 31 26 25 23 20 17 16 15 10 11 12 9 2 355 348 352 359 2 358 356 348 353 355 8 21 36
117 126 126 118 113 103 91 75 55 43 38 35 29 25 24 23 19 16 14 11 14 12 12 11 14 17 16 14 10 360 6 16 11 352 18 23 13 10
111 127 126 121 116 106 94 72 52 39 35 32 27 24 23 23 21 16 15 16 11 13 16 23 19 20 26 27 20 21 21 23 20 20 357 337 330 320
Wind_Speed_850mb
10 9 14 15 12 15 20 19 26 18 15 13 16 24 14 18 22 22 15 23 26 27 28 30 30 29 27 28 31 31 33 30 31 25 19 23 21 17
9 9 10 10 12 4 10 24 28 24 21 24 27 21 20 18 19 28 28 32 36 36 32 33 31 32 34 36 33 32 34 34 27 22 21 21 22 17
12 10 9 12 12 12 15 13 13 20 18 18 20 19 21 29 28 22 29 28 36 33 26 27 36 37 31 27 31 33 32 27 19 20 24 25 24 21
14 10 11 14 19 17 18 21 21 18 18 14 18 20 17 20 26 24 21 18 21 30 32 28 26 27 30 34 32 26 19 20 20 26 28 29 27 22
13 13 16 15 13 19 23 27 24 19 16 13 11 18 18 21 20 19 21 22 25 29 30 32 35 34 25 22 16 17 18 21 26 29 28 26 26 23
12 18 20 18 20 17 9 14 27 15 11 9 4 8 13 12 13 14 14 16 16 17 20 19 18 16 15 6 14 17 25 24 25 24 22 22 21 19
18 18 14 18 8 9 9 18 21 14 8 5 4 3 3 2 7 11 11 12 13 14 16 16 16 18 19 19 21 23 19 20 20 21 22 27 29 30
10 11 21 21 23 25 24 20 13 9 7 1 5 3 5 6 8 10 12 13 13 15 15 14 15 17 20 21 18 15 17 23 21 19 22 30 29 31
26 27 30 27 20 14 12 11 11 8 6 5 4 4 6 8 11 13 13 14 15 16 15 16 18 17 16 14 14 17 26 29 28 27 29 22 25 25
35 31 29 26 22 12 10 9 11 10 10 9 8 8 8 10 11 12 12 12 11 14 16 16 21 21 20 15 20 21 26 29 30 26 26 27 34 29
34 28 22 22 22 19 10 11 14 17 17 14 15 14 13 16 19 18 12 12 13 15 17 16 19 19 14 11 11 19 21 26 29 30 30 28 28 31
31 30 24 19 17 19 11 14 13 18 14 14 16 18 21 23 23 20 16 12 11 6 14 21 19 24 13 10 12 25 29 27 30 31 30 25 25 29
29 24 21 16 15 14 14 14 14 17 16 17 19 22 23 25 25 23 19 17 14 11 15 20 20 22 22 27 25 22 24 29 24 23 17 17 20 21
20 19 19 16 16 17 16 18 21 18 18 20 21 22 24 25 28 26 22 20 19 20 24 26 24 26 28 31 33 30 22 21 20 13 14 15 21 27
18 16 17 17 19 18 18 19 19 18 19 19 21 24 25 26 25 22 21 20 23 27 28 30 28 26 25 27 30 27 26 20 13 23 24 24 25 26
14 18 17 19 14 15 19 18 17 20 21 24 26 26 25 25 26 28 28 29 25 21 21 23 25 26 25 24 23 19 17 21 26 24 26 21 15 19
16 19 20 18 17 20 20 21 23 24 23 24 24 25 24 25 30 31 32 36 41 41 37 34 26 21 21 19 16 16 22 27 24 24 26 23 12 16
18 19 20 19 20 22 22 24 23 23 24 24 24 24 26 31 34 35 37 41 43 40 38 38 38 33 28 20 17 20 22 25 23 20 22 23 19 17
15 20 17 18 20 22 23 23 22 21 22 23 24 27 29 31 35 40 42 43 40 37 37 37 36 37 35 34 21 18 28 27 28 25 18 16 21 22
17 16 16 18 20 22 23 21 19 20 20 22 24 26 28 31 36 40 40 40 38 38 38 35 34 36 30 27 26 22 21 28 25 24 24 22 21 19
17 16 16 17 20 21 20 17 16 18 19 21 23 25 27 30 34 36 38 37 35 38 40 39 34 26 24 20 23 23 24 17 20 20 24 23 24 20
15 15 16 18 19 20 16 13 14 15 17 19 21 25 27 29 33 35 38 38 37 36 36 35 30 27 26 26 26 29 29 20 10 11 12 18 23 25
13 14 15 17 19 18 14 11 12 14 15 17 20 23 26 28 31 34 35 35 37 37 37 34 32 30 30 30 27 27 29 26 24 17 12 15 15 14
Wind_Direction_850mb
175 202 218 224 252 265 271 261 259 254 211 207 193 181 176 185 202 222 245 262 261 272 277 273 273 272 274 278 283 291 292 292 292 288 288 309 319 319
207 224 236 236 233 335 303 259 251 248 235 211 218 204 200 214 243 254 237 262 265 273 267 265 278 275 277 276 281 290 293 291 287 280 286 296 302 309
219 232 245 247 255 280 289 295 270 241 225 226 229 233 234 238 243 240 265 270 278 269 272 288 285 273 270 277 288 288 287 283 278 280 288 295 298 299
216 240 266 262 255 267 277 276 258 200 207 237 241 218 223 251 250 238 247 264 281 276 274 260 263 272 283 286 282 278 273 271 275 282 290 291 290 281
207 244 259 264 267 270 288 268 223 202 203 244 239 230 244 255 258 267 271 273 263 263 270 276 279 281 270 268 260 274 272 280 283 286 290 292 287 281
229 234 255 267 265 272 259 242 207 182 188 157 300 274 266 272 280 280 282 281 277 277 282 281 278 274 274 249 249 261 284 288 291 297 304 294 296 302
231 241 256 263 204 130 141 178 162 186 200 236 291 253 224 267 309 305 300 296 288 280 277 275 274 276 278 274 269 275 282 276 286 281 285 277 294 299
210 164 126 108 112 126 141 148 162 169 180 254 135 328 318 327 319 309 304 296 287 295 284 289 291 284 279 277 276 276 275 281 292 298 293 276 282 293
115 112 107 109 122 118 124 135 141 128 110 62 12 343 336 330 322 317 308 299 290 288 291 292 295 296 288 271 269 274 273 277 286 291 304 298 291 292
110 114 114 109 95 85 92 118 115 100 78 57 39 47 27 11 352 336 325 309 298 300 305 300 299 302 299 284 248 261 268 280 287 289 292 296 284 275
115 113 113 115 104 87 80 90 94 84 77 60 55 53 38 23 15 4 338 318 303 305 324 339 330 330 311 249 271 276 300 294 289 293 292 285 283 284
122 115 106 95 93 95 78 75 80 83 67 54 40 31 24 17 16 18 20 5 360 341 341 338 335 339 337 293 272 285 297 288 287 291 290 289 289 293
118 112 106 99 88 84 85 83 80 80 62 42 33 28 26 24 24 19 11 6 1 351 328 332 327 322 322 313 317 320 314 309 304 301 289 281 277 290
114 112 108 98 100 95 91 84 78 65 48 35 31 31 28 26 21 19 9 352 343 338 328 319 314 314 316 318 325 327 329 314 321 320 308 287 286 295
111 107 96 95 82 83 83 78 64 51 42 35 35 34 27 17 1 354 355 340 324 315 309 312 313 311 311 313 315 326 329 337 324 323 316 311 308 309
117 113 107 97 95 88 84 81 71 60 51 45 38 30 20 8 3 1 359 357 348 327 312 316 315 316 316 315 310 314 323 325 323 317 316 320 305 306
116 117 109 100 97 94 91 84 72 60 51 44 35 28 21 18 16 13 10 8 4 358 356 356 355 342 331 327 324 315 320 322 324 327 326 324 315 310
114 111 107 104 99 93 86 77 69 58 51 44 37 33 28 25 22 18 12 9 5 5 6 5 359 3 9 10 4 350 343 341 338 333 334 336 337 340
117 112 105 103 99 96 88 77 67 59 49 40 35 31 29 26 22 17 11 6 9 12 12 4 7 8 8 5 9 359 343 339 334 337 331 328 333 344
117 109 111 110 105 99 89 76 63 52 44 39 34 29 27 24 19 16 15 16 16 10 6 8 10 7 360 354 355 2 356 351 354 351 345 338 333 336
119 124 120 114 109 101 89 75 60 47 40 38 31 26 25 23 20 17 16 15 10 11 12 9 2 355 348 352 359 2 358 356 348 353 355 8 21 36
117 126 126 118 113 103 91 75 55 43 38 35 29 25 24 23 19 16 14 11 14 12 12 11 14 17 16 14 10 360 6 16 11 352 18 23 13 10
111 127 126 121 116 106 94 72 52 39 35 32 27 24 23 23 21 16 15 16 11 13 16 23 19 20 26 27 20 21 21 23 20 20 357 337 330 320